Location: ???? ?????
(30.0052°N, 31.2891°E)
Time: 03:46:45
(UTC+00:00)

ANTELSAT - Visible Passes

Search period start: 28 January 2023 00:00
Search period end: 07 February 2023 00:00
Orbit: 601 x 682 km, 97.7° (Epoch: 27 January)

Date Brightness Start Highest point End Pass type
(mag) Time Alt. Az. Time Alt. Az. Time Alt. Az.
28 Jan ? 02:31:26 10° SE 02:35:31 33° ENE 02:38:46 14° NNE visible
28 Jan ? 04:09:12 10° SW 04:12:04 16° W 04:14:55 10° NW visible
28 Jan ? 16:03:49 10° N 16:07:52 46° WNW 16:11:53 10° SSW visible
29 Jan ? 02:54:51 10° SSE 02:59:22 66° ENE 03:03:04 15° N visible
29 Jan ? 16:28:18 10° NNW 16:31:39 23° WNW 16:35:00 10° SW visible
30 Jan ? 03:18:46 10° S 03:23:16 62° W 03:27:21 12° NNW visible
30 Jan ? 16:53:43 10° NW 16:55:22 12° WNW 16:57:00 10° W visible
31 Jan ? 02:07:56 10° ESE 02:10:56 18° ENE 02:13:54 10° NNE visible
31 Jan ? 03:43:11 10° SSW 03:47:13 31° W 03:51:11 10° NW visible
01 Feb ? 02:30:39 10° SE 02:34:42 33° ENE 02:38:21 12° NNE visible
01 Feb ? 04:08:25 10° SW 04:11:14 16° W 04:14:02 10° NW visible
01 Feb ? 16:02:55 10° N 16:06:58 46° WNW 16:11:01 10° SSW visible
02 Feb ? 02:54:02 10° SSE 02:58:31 65° ENE 03:02:39 11° N visible
02 Feb ? 16:27:22 10° NNW 16:30:44 23° WNW 16:34:07 10° SW visible
03 Feb ? 03:17:55 10° S 03:22:23 63° W 03:26:46 10° NNW visible
03 Feb ? 16:52:42 10° NW 16:54:25 12° WNW 16:56:08 10° W visible
04 Feb ? 02:07:06 10° ESE 02:10:01 17° ENE 02:12:53 10° NNE visible
04 Feb ? 03:42:19 10° SSW 03:46:18 31° W 03:50:14 10° NW visible
05 Feb ? 02:29:46 10° SE 02:33:44 32° ENE 02:37:39 10° N visible
05 Feb ? 04:07:30 10° SW 04:10:16 16° W 04:13:02 10° WNW visible
05 Feb ? 16:01:53 10° N 16:05:57 47° WNW 16:10:03 10° SSW visible
06 Feb ? 02:53:06 10° SSE 02:57:32 64° ENE 03:01:52 10° N visible
06 Feb ? 16:26:18 10° NNW 16:29:42 24° WNW 16:33:07 10° SW visible
